Flag for U.S.A. Weather past 2 weeks in Atlantic City, New Jersey, U.S.A.

Now
65 °F

Sunny.


Feels Like: 65 °F
Forecast: 52 / 65 °F
Wind: 6 mph from East

Location: Atlantic City International Airport

Current Time: Sep 23, 2014 at 5:07:27 PM

Latest Report: Sep 23, 2014 at 3:54 PM


Visibility: 10 mi

Pressure: 30.32 "Hg

Humidity: 56%

Dew point: 49 °F

Location of Atlantic CityLocation

Historic Weather in Atlantic City — Graph

°F

Atlantic City temperature yesterday

Maximum temperature yesterday: 73 °F (at 12:54 PM)
Minimum temperature yesterday: 51 °F (at 11:54 PM)
Average temperature yesterday: 65 °F

Past Weeks' High & Low Weather Summary

 TemperatureHumidityPressure
High85 °F (Sep 11, 2:54 PM)100% (Sep 21, 3:54 AM)30.34 "Hg (Sep 21, 3:54 AM)
Low41 °F (Sep 23, 5:54 AM)40% (Sep 17, 11:54 AM)29.63 "Hg (Sep 21, 5:54 PM)
Average65 °F79%30.08 "Hg
* Reported Sep 8 3:54 PM — Sep 23 3:54 PM, Atlantic City, Weather by CustomWeather, © 2014

Note: Actual official high and low records may vary slightly from our data, if they occured in-between our weather recording intervals... More about our weather records

Advertising

Atlantic City weather history for previous 24 hours

 ConditionsComfort  
Time TempWeatherWind HumidityBarometerVisibility
3:54 PM
Sep 23
65 °FSunny.6 mph56%30.32 "Hg10 mi
2:54 PM66 °FSunny.6 mph50%30.33 "Hg10 mi
1:54 PM66 °FSunny.No wind50%30.34 "Hg10 mi
12:54 PM65 °FSunny.6 mph54%30.34 "Hg10 mi
11:54 AM62 °FSunny.7 mph58%30.33 "Hg10 mi
10:54 AM61 °FSunny.No wind60%30.33 "Hg10 mi
9:54 AM57 °FSunny.5 mph62%30.32 "Hg10 mi
8:54 AM52 °FSunny.8 mph75%30.32 "Hg10 mi
7:54 AM46 °FSunny.6 mph89%30.29 "Hg10 mi
6:54 AM42 °FClear.5 mph92%30.28 "Hg10 mi
5:54 AM41 °FClear.7 mph89%30.26 "Hg10 mi
4:54 AM48 °FClear.No wind83%30.24 "Hg10 mi
3:54 AM48 °FClear.3 mph86%30.22 "Hg10 mi
2:54 AM49 °FClear.6 mph84%30.21 "Hg10 mi
1:54 AM51 °FClear.No wind77%30.21 "Hg10 mi
12:54 AM50 °FClear.3 mph83%30.20 "Hg10 mi
11:54 PM
Sep 22
51 °FClear.6 mph86%30.19 "Hg10 mi
10:54 PM53 °FClear.5 mph86%30.17 "Hg10 mi
9:54 PM56 °FClear.5 mph81%30.14 "Hg10 mi
8:54 PM56 °FClear.8 mph81%30.10 "Hg10 mi
7:54 PM62 °FSunny.6 mph65%30.06 "Hg10 mi
6:54 PM64 °FSunny.6 mph61%30.04 "Hg10 mi
5:54 PM67 °FOvercast.13 mph55%30.01 "Hg10 mi
Weather by CustomWeather, © 2014

See weather overviewHow to use our weather pages